Hourly Data Report for September 05, 2006

TORONTO CITY
ONTARIO

43°40'00.000" N
79°24'00.000" W
112.50 m
6158355
71508
XTO

Download Data

Hourly Data (September 2006)
Hourly Data Report for September 5, 2006
TIME
LST
Temp Definition
°C
Dew Point Definition
°C
Rel Hum Definition
%
Precip. Amount Definition
mm

Wind Dir Definition
10's deg

Wind Spd Definition
km/h
Visibility Definition
km
Stn Press Definition
kPa
Hmdx Definition


Wind Chill Definition


Weather Definition


00:00 18.1 14.2 78   LegendMM LegendMM   100.52     LegendNANA
01:00 17.5 14.3 81   LegendMM LegendMM   100.50     LegendNANA
02:00 17.7 14.4 81   LegendMM LegendMM   100.48     LegendNANA
03:00 17.5 14.7 84   LegendMM LegendMM   100.43     LegendNANA
04:00 16.9 14.8 87   LegendMM LegendMM   100.44     LegendNANA
05:00 17.2 14.9 86   LegendMM LegendMM   100.44     LegendNANA
06:00 17.2 14.6 85   LegendMM LegendMM   100.46     LegendNANA
07:00 17.6 14.8 84   LegendMM LegendMM   100.47     LegendNANA
08:00 17.8 14.7 82   LegendMM LegendMM   100.47     LegendNANA
09:00 18.3 14.4 78   LegendMM LegendMM   100.47     LegendNANA
10:00 18.8 13.5 71   LegendMM LegendMM   100.44     LegendNANA
11:00 18.3 14.5 79   LegendMM LegendMM   100.42     LegendNANA
12:00 18.6 14.5 77   LegendMM LegendMM   100.37     LegendNANA
13:00 19.3 15.0 76   LegendMM LegendMM   100.30     LegendNANA
14:00 18.5 15.9 85   LegendMM LegendMM   100.25     LegendNANA
15:00 19.0 15.5 80   LegendMM LegendMM   100.19     LegendNANA
16:00 18.6 15.4 82   LegendMM LegendMM   100.17     LegendNANA
17:00 18.8 15.3 80   LegendMM LegendMM   100.12     LegendNANA
18:00 18.6 15.0 80   LegendMM LegendMM   100.11     LegendNANA
19:00 17.7 15.3 86   LegendMM LegendMM   100.06     LegendNANA
20:00 17.5 15.9 90   LegendMM LegendMM   100.10     LegendNANA
21:00 16.8 15.8 94   LegendMM LegendMM   100.11     LegendNANA
22:00 18.1 15.9 87   LegendMM LegendMM   100.10     LegendNANA
23:00 17.6 15.9 90   LegendMM LegendMM   100.07     LegendNANA

Notes on Data Quality.

Legend

  • E = Estimated
  • M = Missing
  • NA = Not Available*
  • [empty] = Indicates an unobserved value
Date modified: